Regional Weather Roundup
Issued by NWS Albany, NY

Home | Current Version | Previous Version | Text Only | Print | Product List | Glossary On
Versions: 1 2 3 4 5 6 7 8 9 10 11 12 13 14 15 16 17 18 19 20 21 22 23 24 25 26 27 28 29 30 31 32 33 34 35 36 37 38 39 40 41 42 43 44 45 46 47 48 49 50
865
ASUS41 KALY 240810
RWRALY

NEW YORK STATE HOURLY WEATHER ROUNDUP
NATIONAL WEATHER SERVICE ALBANY NY
400 AM EDT TUE MAY 24 2016

NOTE: "FAIR" INDICATES FEW OR NO CLOUDS BELOW 12,000 FEET WITH NO
SIGNIFICANT WEATHER AND/OR NO OBSTRUCTIONS TO VISIBILITY.

NYZ032-033-038>043-046>054-057>066-NYZ062>081-082-084-240900-
EAST


CITY           SKY/WX    TMP DP  RH WIND       PRES   REMARKS
ALBANY         LGT RAIN  62  51  67 S7        29.90S
GLENS FALLS    CLOUDY    53  45  74 CALM      29.90S
POUGHKEEPSIE   LGT RAIN  58  54  86 SW7       29.87F
NEWBURGH       LGT RAIN  57  55  94 E7        29.91S
MONTGOMERY     LGT RAIN  58  54  86 CALM      29.90S
WHITE PLAINS   LGT RAIN  57  53  86 NW14      29.85F
ISLIP          CLOUDY    56  53  90 CALM      29.84F
NEW YORK CITY  LGT RAIN  61  59  93 NW8       29.86F
CENTRAL PARK   LGT RAIN  59  54  83 W7        29.90F
$$

NYZ005>009-017-018-044>046-055-056-240900-
CENTRAL


CITY           SKY/WX    TMP DP  RH WIND       PRES   REMARKS
FULTON         PTCLDY    53  45  74 NW7       29.93S
SYRACUSE       CLEAR     50  46  86 CALM      29.94R
ROME           PTCLDY    48  46  93 CALM      29.95R
ELMIRA         CLEAR     48  42  80 SW5       29.96S
BINGHAMTON     PTCLDY    55  42  61 N7        29.94S
MONTICELLO     CLOUDY    54  46  76 E5        29.93R
$$

NYZ026>034-041>043-087-240900-
NORTH


CITY           SKY/WX    TMP DP  RH WIND       PRES   REMARKS
WATERTOWN      PTCLDY    45  42  89 CALM      29.92S
FORT DRUM      NOT AVBL
MASSENA        FOG       45  43  93 CALM      29.93R VSB 1/4
SARANAC LAKE   CLEAR     32  29  88 CALM      29.95S
PLATTSBURGH    PTCLDY    45  41  86 CALM      29.90S
$$

NYZ001>004-010>016-019>021-085-240900-
WEST


CITY           SKY/WX    TMP DP  RH WIND       PRES   REMARKS
NIAGARA FALLS  CLEAR     53  48  83 CALM      29.97S
BUFFALO        CLEAR     56  49  77 SW8       29.99R
DUNKIRK        CLEAR     55  44  66 SW5       30.00S
JAMESTOWN        N/A    N/A N/A N/A MISG        N/A
WELLSVILLE     CLEAR     49  40  71 NW6       30.02S
ROCHESTER      CLEAR     52  46  80 NW3       29.97R
PENN YAN       CLEAR     53  43  68 W3        29.96S
$$

             KEY
       WCI = WIND CHILL INDEX
       VSB = VISIBILITY
       HX  = HEAT INDEX
$$




USA.gov is the U.S. government's official web portal to all federal, state and local government web resources and services.